Location: Vinland
(47.7731°N, 122.6974°W)
Time: 10:59:45
(UTC+00:00)

A-11 Canister half - Visible Passes

Search period start: 29 March 2023 00:00
Search period end: 08 April 2023 00:00
Orbit: 1526 x 1682 km, 47.3° (Epoch: 28 March)

Date Brightness Start Highest point End Pass type
(mag) Time Alt. Az. Time Alt. Az. Time Alt. Az.
29 Mar 9.1 03:34:14 10° W 03:44:13 80° SSW 03:52:13 17° ESE visible
29 Mar 9.5 05:39:33 10° WNW 05:48:34 43° SW 05:50:30 39° S visible
29 Mar 10.9 07:47:52 10° W 07:48:48 11° WSW 07:48:48 11° WSW visible
30 Mar 9.2 03:12:29 10° W 03:22:30 81° SSW 03:31:44 12° ESE visible
30 Mar 9.5 05:17:47 10° WNW 05:26:54 45° SW 05:30:02 35° S visible
30 Mar 10.8 07:25:38 10° W 07:28:20 13° WSW 07:28:20 13° WSW visible
31 Mar 9.2 02:50:44 10° W 03:00:46 82° SSW 03:10:27 10° ESE visible
31 Mar 9.5 04:56:02 10° WNW 05:05:15 47° SW 05:09:36 30° SSE visible
31 Mar 10.7 07:03:30 10° W 07:07:54 15° WSW 07:07:54 15° WSW visible
01 Apr 9.5 04:34:16 10° WNW 04:43:35 49° SW 04:49:11 24° SSE visible
01 Apr 10.6 06:41:26 10° W 06:46:40 16° SW 06:47:30 16° SW visible
02 Apr 9.6 04:12:30 10° WNW 04:21:55 51° SW 04:28:50 19° SSE visible
02 Apr 10.5 06:19:26 10° W 06:25:04 17° SW 06:27:08 16° SW visible
03 Apr 9.6 03:50:45 10° WNW 04:00:14 52° SSW 04:08:30 13° SE visible
03 Apr 10.5 05:57:28 10° W 06:03:29 18° SW 06:06:49 15° SSW visible
04 Apr 9.6 03:28:59 10° WNW 03:38:34 54° SSW 03:47:49 10° SE visible
04 Apr 10.6 05:35:30 10° W 05:41:52 20° SW 05:46:32 14° SSW visible
05 Apr 9.6 03:07:14 10° WNW 03:16:53 56° SSW 03:26:12 10° SE visible
05 Apr 10.6 05:13:35 10° W 05:20:16 21° SW 05:26:19 11° S visible
06 Apr 10.6 04:51:41 10° W 04:58:39 22° SW 05:05:29 10° S visible
07 Apr 10.6 04:29:48 10° W 04:37:03 24° SW 04:44:07 10° S visible
